Time,TemperatureF,DewpointF,PressureIn,WindDirection,WindDirectionDegrees,WindSpeedMPH,WindSpeedGustMPH,Humidity,HourlyPrecipIn,Conditions,Clouds,dailyrainin,SoftwareType,DateUTC
2013-04-25 00:00:00,58.9,54.4,29.96,South,180,0.0,1.0,85,0.00,,---,0.00,VWS V14.01,2013-04-25 07:00:00,
2013-04-25 00:03:00,58.9,54.0,29.95,South,184,0.0,1.0,85,0.00,,,0.00,weatherlink.com 1.10,2013-04-25 07:03:00,
2013-04-25 00:15:00,58.9,54.7,29.95,South,180,0.0,2.0,86,0.00,,---,0.00,VWS V14.01,2013-04-25 07:15:00,
2013-04-25 00:18:00,58.9,54.0,29.95,South,184,0.0,2.0,85,0.00,,,0.00,weatherlink.com 1.10,2013-04-25 07:18:00,
2013-04-25 00:30:00,58.8,54.3,29.95,South,180,0.0,1.0,85,0.00,,---,0.00,VWS V14.01,2013-04-25 07:30:00,
2013-04-25 00:33:00,58.8,54.0,29.95,South,184,0.0,0.0,85,0.00,,,0.00,weatherlink.com 1.10,2013-04-25 07:33:00,
2013-04-25 00:45:00,58.8,54.3,29.95,South,180,0.0,2.0,85,0.00,,---,0.00,VWS V14.01,2013-04-25 07:45:00,
2013-04-25 00:48:00,58.8,54.0,29.95,South,184,0.0,2.0,85,0.00,,,0.00,weatherlink.com 1.10,2013-04-25 07:48:00,
2013-04-25 01:00:00,58.8,54.3,29.95,South,180,0.0,1.0,85,0.00,,---,0.00,VWS V14.01,2013-04-25 08:00:00,
2013-04-25 01:03:00,58.8,54.0,29.95,South,184,0.0,0.0,85,0.00,,,0.00,weatherlink.com 1.10,2013-04-25 08:03:00,
2013-04-25 01:15:00,58.8,54.3,29.96,South,180,0.0,1.0,85,0.00,,---,0.00,VWS V14.01,2013-04-25 08:15:00,
2013-04-25 01:18:00,58.8,54.0,29.95,South,184,0.0,1.0,85,0.00,,,0.00,weatherlink.com 1.10,2013-04-25 08:18:00,
2013-04-25 01:30:00,58.8,54.3,29.95,South,180,0.0,1.0,85,0.00,,---,0.00,VWS V14.01,2013-04-25 08:30:00,
2013-04-25 01:33:00,58.8,54.0,29.95,South,184,0.0,1.0,85,0.00,,,0.00,weatherlink.com 1.10,2013-04-25 08:33:00,
2013-04-25 01:45:00,58.8,54.6,29.95,South,180,0.0,1.0,86,0.00,,---,0.00,VWS V14.01,2013-04-25 08:45:00,
2013-04-25 01:48:00,58.8,54.0,29.95,South,184,0.0,1.0,85,0.00,,,0.00,weatherlink.com 1.10,2013-04-25 08:48:00,
2013-04-25 02:00:00,58.7,54.2,29.95,South,180,0.0,0.0,85,0.00,,---,0.00,VWS V14.01,2013-04-25 09:00:00,
2013-04-25 02:03:00,58.7,54.0,29.95,South,184,0.0,1.0,85,0.00,,,0.00,weatherlink.com 1.10,2013-04-25 09:03:00,
2013-04-25 02:15:00,58.7,54.2,29.95,South,180,0.0,3.0,85,0.00,,---,0.00,VWS V14.01,2013-04-25 09:15:00,
2013-04-25 02:18:00,58.8,54.0,29.95,South,184,2.0,3.0,85,0.00,,,0.00,weatherlink.com 1.10,2013-04-25 09:18:00,
2013-04-25 02:30:00,58.8,54.0,29.95,South,180,0.0,3.0,84,0.00,,---,0.00,VWS V14.01,2013-04-25 09:30:00,
2013-04-25 02:33:00,58.8,54.0,29.95,South,184,0.0,1.0,84,0.00,,,0.00,weatherlink.com 1.10,2013-04-25 09:33:00,
2013-04-25 02:45:00,58.9,54.4,29.94,South,180,0.0,2.0,85,0.00,,---,0.00,VWS V14.01,2013-04-25 09:45:00,
2013-04-25 02:48:00,58.9,54.0,29.94,South,184,0.0,1.0,85,0.00,,,0.00,weatherlink.com 1.10,2013-04-25 09:48:00,
2013-04-25 03:00:00,58.8,54.0,29.94,South,180,0.0,2.0,84,0.00,,---,0.00,VWS V14.01,2013-04-25 10:00:00,
2013-04-25 03:03:00,58.8,54.0,29.95,South,184,0.0,2.0,84,0.00,,,0.00,weatherlink.com 1.10,2013-04-25 10:03:00,
2013-04-25 03:15:00,58.8,54.0,29.94,South,180,0.0,1.0,84,0.00,,---,0.00,VWS V14.01,2013-04-25 10:15:00,
2013-04-25 03:18:00,58.7,54.0,29.95,South,184,0.0,1.0,84,0.00,,,0.00,weatherlink.com 1.10,2013-04-25 10:18:00,
2013-04-25 03:30:00,58.7,53.9,29.95,South,180,0.0,1.0,84,0.00,,---,0.00,VWS V14.01,2013-04-25 10:30:00,
2013-04-25 03:33:00,58.7,54.0,29.95,South,184,0.0,1.0,84,0.00,,,0.00,weatherlink.com 1.10,2013-04-25 10:33:00,
2013-04-25 03:45:00,58.7,53.9,29.95,South,180,0.0,1.0,84,0.00,,---,0.00,VWS V14.01,2013-04-25 10:45:00,
2013-04-25 03:48:00,58.7,54.0,29.95,South,184,0.0,0.0,84,0.00,,,0.00,weatherlink.com 1.10,2013-04-25 10:48:00,
2013-04-25 04:00:00,58.6,53.8,29.95,South,180,0.0,0.0,84,0.00,,---,0.00,VWS V14.01,2013-04-25 11:00:00,
2013-04-25 04:03:00,58.6,54.0,29.95,South,184,0.0,0.0,84,0.00,,,0.00,weatherlink.com 1.10,2013-04-25 11:03:00,
2013-04-25 04:15:00,58.5,54.0,29.95,South,180,0.0,0.0,85,0.00,,---,0.00,VWS V14.01,2013-04-25 11:15:00,
2013-04-25 04:18:00,58.4,54.0,29.96,South,184,0.0,1.0,84,0.00,,,0.00,weatherlink.com 1.10,2013-04-25 11:18:00,
2013-04-25 04:30:00,58.4,53.6,29.96,South,180,0.0,1.0,84,0.00,,---,0.00,VWS V14.01,2013-04-25 11:30:00,
2013-04-25 04:33:00,58.3,54.0,29.96,South,184,0.0,0.0,84,0.00,,,0.00,weatherlink.com 1.10,2013-04-25 11:33:00,
2013-04-25 04:45:00,58.3,53.5,29.96,South,180,0.0,0.0,84,0.00,,---,0.00,VWS V14.01,2013-04-25 11:45:00,
2013-04-25 04:48:00,58.2,53.0,29.96,South,184,0.0,0.0,84,0.00,,,0.00,weatherlink.com 1.10,2013-04-25 11:48:00,
2013-04-25 05:00:00,58.2,53.4,29.96,South,180,0.0,0.0,84,0.00,,---,0.00,VWS V14.01,2013-04-25 12:00:00,
2013-04-25 05:03:00,58.1,53.0,29.96,South,184,0.0,0.0,84,0.00,,,0.00,weatherlink.com 1.10,2013-04-25 12:03:00,
2013-04-25 05:15:00,58.0,53.5,29.97,South,180,0.0,0.0,85,0.00,,---,0.00,VWS V14.01,2013-04-25 12:15:00,
2013-04-25 05:18:00,58.0,54.0,29.96,South,184,0.0,0.0,85,0.00,,,0.00,weatherlink.com 1.10,2013-04-25 12:18:00,
2013-04-25 05:30:00,57.9,53.4,29.97,South,180,0.0,0.0,85,0.00,,---,0.00,VWS V14.01,2013-04-25 12:30:00,
2013-04-25 05:33:00,57.8,53.0,29.97,South,184,0.0,0.0,85,0.00,,,0.00,weatherlink.com 1.10,2013-04-25 12:33:00,
2013-04-25 05:45:00,57.7,53.2,29.97,South,180,0.0,0.0,85,0.00,,---,0.00,VWS V14.01,2013-04-25 12:45:00,
2013-04-25 05:48:00,57.6,53.0,29.97,South,184,0.0,0.0,85,0.00,,,0.00,weatherlink.com 1.10,2013-04-25 12:48:00,
2013-04-25 06:00:00,57.5,53.0,29.97,South,180,0.0,0.0,85,0.00,,---,0.00,VWS V14.01,2013-04-25 13:00:00,
2013-04-25 06:04:00,57.3,53.0,29.97,South,184,0.0,0.0,86,0.00,,,0.00,weatherlink.com 1.10,2013-04-25 13:04:00,
2013-04-25 06:15:00,57.2,53.1,29.98,South,180,0.0,0.0,86,0.00,,---,0.00,VWS V14.01,2013-04-25 13:15:00,
2013-04-25 06:19:00,57.1,53.0,29.98,South,184,0.0,0.0,86,0.00,,,0.00,weatherlink.com 1.10,2013-04-25 13:19:00,
2013-04-25 06:30:00,57.1,53.3,29.99,South,180,0.0,0.0,87,0.00,,---,0.00,VWS V14.01,2013-04-25 13:30:00,
2013-04-25 06:34:00,57.1,53.0,29.99,South,184,0.0,0.0,87,0.00,,,0.00,weatherlink.com 1.10,2013-04-25 13:34:00,
2013-04-25 06:45:00,57.1,53.3,29.99,South,180,0.0,0.0,87,0.00,,---,0.00,VWS V14.01,2013-04-25 13:45:00,
2013-04-25 06:49:00,57.2,53.0,29.99,South,184,0.0,0.0,87,0.00,,,0.00,weatherlink.com 1.10,2013-04-25 13:49:00,
2013-04-25 07:00:00,57.4,53.6,30.00,South,180,0.0,0.0,87,0.00,,---,0.00,VWS V14.01,2013-04-25 14:00:00,
2013-04-25 07:04:00,57.5,53.0,30.00,South,184,0.0,0.0,86,0.00,,,0.00,weatherlink.com 1.10,2013-04-25 14:04:00,
2013-04-25 07:15:00,57.8,53.7,30.00,South,180,0.0,0.0,86,0.00,,---,0.00,VWS V14.01,2013-04-25 14:15:00,
2013-04-25 07:19:00,58.0,54.0,30.00,South,184,0.0,0.0,85,0.00,,,0.00,weatherlink.com 1.10,2013-04-25 14:19:00,
2013-04-25 07:30:00,58.5,53.4,30.00,South,180,0.0,0.0,83,0.00,,---,0.00,VWS V14.01,2013-04-25 14:30:00,
2013-04-25 07:34:00,58.9,53.0,30.01,South,184,0.0,0.0,82,0.00,,,0.00,weatherlink.com 1.10,2013-04-25 14:34:00,
2013-04-25 07:45:00,59.8,53.6,30.01,South,180,0.0,0.0,80,0.00,,---,0.00,VWS V14.01,2013-04-25 14:45:00,
2013-04-25 07:49:00,60.2,54.0,30.01,South,184,0.0,1.0,80,0.00,,,0.00,weatherlink.com 1.10,2013-04-25 14:49:00,
2013-04-25 08:00:00,60.9,54.0,30.01,South,180,0.0,1.0,78,0.00,,---,0.00,VWS V14.01,2013-04-25 15:00:00,
2013-04-25 08:04:00,61.2,54.0,30.01,South,184,0.0,1.0,77,0.00,,,0.00,weatherlink.com 1.10,2013-04-25 15:04:00,
2013-04-25 08:15:00,61.9,55.0,30.01,NW,315,0.0,2.0,78,0.00,,---,0.00,VWS V14.01,2013-04-25 15:15:00,
2013-04-25 08:19:00,62.2,55.0,30.02,NNE,27,0.0,3.0,76,0.00,,,0.00,weatherlink.com 1.10,2013-04-25 15:19:00,
2013-04-25 08:30:00,63.0,55.3,30.02,NNE,22,0.0,3.0,76,0.00,,---,0.00,VWS V14.01,2013-04-25 15:30:00,
2013-04-25 08:34:00,63.4,55.0,30.02,NE,55,0.0,3.0,73,0.00,,,0.00,weatherlink.com 1.10,2013-04-25 15:34:00,
2013-04-25 08:45:00,64.0,55.2,30.02,NNE,22,1.0,3.0,73,0.00,,---,0.00,VWS V14.01,2013-04-25 15:45:00,
2013-04-25 08:49:00,64.7,55.0,30.02,NE,47,1.0,3.0,72,0.00,,,0.00,weatherlink.com 1.10,2013-04-25 15:49:00,
2013-04-25 09:00:00,65.4,55.0,30.03,NE,45,1.0,3.0,69,0.00,,---,0.00,VWS V14.01,2013-04-25 16:00:00,
2013-04-25 09:04:00,65.5,55.0,30.03,NNW,348,0.0,3.0,68,0.00,,,0.00,weatherlink.com 1.10,2013-04-25 16:04:00,
2013-04-25 09:15:00,66.0,54.7,30.03,NNW,338,0.0,3.0,67,0.00,,---,0.00,VWS V14.01,2013-04-25 16:15:00,
2013-04-25 09:19:00,66.5,55.0,30.04,NNW,340,0.0,3.0,66,0.00,,,0.00,weatherlink.com 1.10,2013-04-25 16:19:00,
2013-04-25 09:30:00,67.1,54.5,30.04,NNW,338,0.0,3.0,64,0.00,,---,0.00,VWS V14.01,2013-04-25 16:30:00,
2013-04-25 09:34:00,67.6,54.0,30.04,SE,139,1.0,2.0,63,0.00,,,0.00,weatherlink.com 1.10,2013-04-25 16:34:00,
2013-04-25 09:45:00,66.9,53.9,30.04,SW,225,1.0,3.0,63,0.00,,---,0.00,VWS V14.01,2013-04-25 16:45:00,
2013-04-25 09:49:00,66.6,54.0,30.05,SW,225,0.0,2.0,65,0.00,,,0.00,weatherlink.com 1.10,2013-04-25 16:49:00,
2013-04-25 10:00:00,66.7,54.6,30.05,West,270,0.0,3.0,65,0.00,,---,0.00,VWS V14.01,2013-04-25 17:00:00,
2013-04-25 10:04:00,66.7,54.0,30.05,West,261,3.0,3.0,64,0.00,,,0.00,weatherlink.com 1.10,2013-04-25 17:04:00,
2013-04-25 10:15:00,66.0,53.9,30.05,West,270,1.0,4.0,65,0.00,,---,0.00,VWS V14.01,2013-04-25 17:15:00,
2013-04-25 10:19:00,65.8,53.0,30.05,West,280,0.0,6.0,64,0.00,,,0.00,weatherlink.com 1.10,2013-04-25 17:19:00,
2013-04-25 10:30:00,65.7,53.2,30.05,West,270,1.0,6.0,64,0.00,,---,0.00,VWS V14.01,2013-04-25 17:30:00,
2013-04-25 10:34:00,65.6,53.0,30.05,SSW,209,0.0,5.0,64,0.00,,,0.00,weatherlink.com 1.10,2013-04-25 17:34:00,
2013-04-25 10:45:00,65.8,52.9,30.06,SSW,202,1.0,4.0,63,0.00,,---,0.00,VWS V14.01,2013-04-25 17:45:00,
2013-04-25 10:49:00,66.0,55.0,30.05,West,265,0.0,4.0,67,0.00,,,0.00,weatherlink.com 1.10,2013-04-25 17:49:00,
2013-04-25 11:00:00,67.4,53.9,30.06,NE,45,0.0,3.0,62,0.00,,---,0.00,VWS V14.01,2013-04-25 18:00:00,
2013-04-25 11:04:00,67.5,54.0,30.06,South,190,1.0,5.0,62,0.00,,,0.00,weatherlink.com 1.10,2013-04-25 18:04:00,
2013-04-25 11:15:00,67.1,53.2,30.05,SSW,202,2.0,6.0,61,0.00,,---,0.00,VWS V14.01,2013-04-25 18:15:00,
2013-04-25 11:19:00,67.8,54.0,30.05,West,266,5.0,7.0,61,0.00,,,0.00,weatherlink.com 1.10,2013-04-25 18:19:00,
2013-04-25 11:30:00,68.8,54.8,30.05,SSW,202,3.0,12.0,61,0.00,,---,0.00,VWS V14.01,2013-04-25 18:30:00,
2013-04-25 11:34:00,69.3,55.0,30.05,SSW,207,5.0,12.0,60,0.00,,,0.00,weatherlink.com 1.10,2013-04-25 18:34:00,
2013-04-25 11:45:00,69.9,54.5,30.05,SSW,202,4.0,10.0,58,0.00,,---,0.00,VWS V14.01,2013-04-25 18:45:00,
2013-04-25 11:50:00,69.6,55.0,30.05,South,182,10.0,10.0,61,0.00,,,0.00,weatherlink.com 1.10,2013-04-25 18:50:00,
2013-04-25 12:00:00,69.7,55.2,30.05,SSW,202,5.0,12.0,60,0.00,,---,0.00,VWS V14.01,2013-04-25 19:00:00,
2013-04-25 12:05:00,70.0,55.0,30.05,SW,229,3.0,10.0,59,0.00,,,0.00,weatherlink.com 1.10,2013-04-25 19:05:00,
2013-04-25 12:15:00,69.8,55.3,30.05,SSW,202,4.0,13.0,60,0.00,,---,0.00,VWS V14.01,2013-04-25 19:15:00,
2013-04-25 12:20:00,70.2,55.0,30.05,South,187,9.0,9.0,59,0.00,,,0.00,weatherlink.com 1.10,2013-04-25 19:20:00,
2013-04-25 12:30:00,70.1,54.7,30.05,SSW,202,5.0,11.0,58,0.00,,---,0.00,VWS V14.01,2013-04-25 19:30:00,
2013-04-25 12:35:00,70.3,55.0,30.04,WSW,237,2.0,9.0,59,0.00,,,0.00,weatherlink.com 1.10,2013-04-25 19:35:00,
2013-04-25 12:45:00,70.1,55.1,30.04,SSW,202,5.0,11.0,59,0.00,,---,0.00,VWS V14.01,2013-04-25 19:45:00,
2013-04-25 12:50:00,70.1,55.0,30.04,South,175,7.0,14.0,59,0.00,,,0.00,weatherlink.com 1.10,2013-04-25 19:50:00,
2013-04-25 13:00:00,70.3,54.4,30.04,SSW,202,5.0,14.0,57,0.00,,---,0.00,VWS V14.01,2013-04-25 20:00:00,
2013-04-25 13:05:00,69.9,54.0,30.04,SSW,192,8.0,11.0,57,0.00,,,0.00,weatherlink.com 1.10,2013-04-25 20:05:00,
2013-04-25 13:15:00,70.2,53.8,30.04,SSW,202,5.0,11.0,56,0.00,,---,0.00,VWS V14.01,2013-04-25 20:15:00,
2013-04-25 13:20:00,70.6,54.0,30.04,SSW,203,0.0,10.0,55,0.00,,,0.00,weatherlink.com 1.10,2013-04-25 20:20:00,
2013-04-25 13:30:00,70.7,54.7,30.04,SSW,202,4.0,11.0,57,0.00,,---,0.00,VWS V14.01,2013-04-25 20:30:00,
2013-04-25 13:35:00,70.8,56.0,30.04,SW,227,4.0,11.0,59,0.00,,,0.00,weatherlink.com 1.10,2013-04-25 20:35:00,
2013-04-25 13:45:00,71.1,55.6,30.04,SSW,202,5.0,12.0,58,0.00,,---,0.00,VWS V14.01,2013-04-25 20:45:00,
2013-04-25 13:50:00,70.9,56.0,30.04,SSW,200,7.0,11.0,59,0.00,,,0.00,weatherlink.com 1.10,2013-04-25 20:50:00,
2013-04-25 14:00:00,70.6,55.6,30.04,SSW,202,6.0,12.0,59,0.00,,---,0.00,VWS V14.01,2013-04-25 21:00:00,
2013-04-25 14:05:00,70.6,55.0,30.04,SSW,198,5.0,10.0,58,0.00,,,0.00,weatherlink.com 1.10,2013-04-25 21:05:00,
2013-04-25 14:15:00,70.3,53.9,30.04,SSW,202,5.0,12.0,56,0.00,,---,0.00,VWS V14.01,2013-04-25 21:15:00,
2013-04-25 14:20:00,69.7,54.0,30.04,South,185,5.0,11.0,57,0.00,,,0.00,weatherlink.com 1.10,2013-04-25 21:20:00,
2013-04-25 14:30:00,70.0,53.1,30.04,SSW,202,5.0,11.0,55,0.00,,---,0.00,VWS V14.01,2013-04-25 21:30:00,
2013-04-25 14:35:00,70.3,53.0,30.04,SSW,192,5.0,13.0,54,0.00,,,0.00,weatherlink.com 1.10,2013-04-25 21:35:00,
2013-04-25 14:45:00,70.3,54.4,30.03,SSW,202,5.0,14.0,57,0.00,,---,0.00,VWS V14.01,2013-04-25 21:45:00,
2013-04-25 14:50:00,70.4,55.0,30.03,WSW,241,4.0,13.0,59,0.00,,,0.00,weatherlink.com 1.10,2013-04-25 21:50:00,
2013-04-25 15:00:00,70.7,54.7,30.03,SSW,202,5.0,12.0,57,0.00,,---,0.00,VWS V14.01,2013-04-25 22:00:00,
2013-04-25 15:05:00,70.8,55.0,30.03,SSW,197,10.0,13.0,57,0.00,,,0.00,weatherlink.com 1.10,2013-04-25 22:05:00,
2013-04-25 15:15:00,70.8,54.3,30.03,SSW,202,5.0,13.0,56,0.00,,---,0.00,VWS V14.01,2013-04-25 22:15:00,
2013-04-25 15:30:00,70.8,55.3,30.03,SSW,202,5.0,12.0,58,0.00,,---,0.00,VWS V14.01,2013-04-25 22:30:00,
2013-04-25 15:35:00,70.8,54.0,30.02,SSW,209,2.0,10.0,56,0.00,,,0.00,weatherlink.com 1.10,2013-04-25 22:35:00,
2013-04-25 15:45:00,70.5,55.0,30.02,SW,225,5.0,11.0,58,0.00,,---,0.00,VWS V14.01,2013-04-25 22:45:00,
2013-04-25 15:50:00,70.5,55.0,30.02,South,182,3.0,11.0,58,0.00,,,0.00,weatherlink.com 1.10,2013-04-25 22:50:00,
2013-04-25 16:00:00,70.7,54.7,30.02,SSW,202,5.0,12.0,57,0.00,,---,0.00,VWS V14.01,2013-04-25 23:00:00,
2013-04-25 16:05:00,70.7,55.0,30.02,SSW,208,3.0,11.0,57,0.00,,,0.00,weatherlink.com 1.10,2013-04-25 23:05:00,
2013-04-25 16:15:00,70.5,54.5,30.01,WSW,248,4.0,11.0,57,0.00,,---,0.00,VWS V14.01,2013-04-25 23:15:00,
2013-04-25 16:20:00,70.6,55.0,30.01,SSW,192,5.0,11.0,59,0.00,,,0.00,weatherlink.com 1.10,2013-04-25 23:20:00,
2013-04-25 16:30:00,70.8,55.3,30.01,SSW,202,4.0,10.0,58,0.00,,---,0.00,VWS V14.01,2013-04-25 23:30:00,
2013-04-25 16:35:00,70.1,55.0,30.02,SW,231,6.0,14.0,60,0.00,,,0.00,weatherlink.com 1.10,2013-04-25 23:35:00,
2013-04-25 16:45:00,69.7,55.7,30.01,WSW,248,6.0,14.0,61,0.00,,---,0.00,VWS V14.01,2013-04-25 23:45:00,
2013-04-25 16:50:00,69.8,56.0,30.02,South,189,10.0,12.0,61,0.00,,,0.00,weatherlink.com 1.10,2013-04-25 23:50:00,
2013-04-25 17:00:00,69.8,55.8,30.01,SW,225,5.0,12.0,61,0.00,,---,0.00,VWS V14.01,2013-04-26 00:00:00,
2013-04-25 17:05:00,69.6,55.0,30.01,SW,231,7.0,12.0,61,0.00,,,0.00,weatherlink.com 1.10,2013-04-26 00:05:00,
2013-04-25 17:15:00,69.0,55.0,30.01,WSW,248,6.0,17.0,61,0.00,,---,0.00,VWS V14.01,2013-04-26 00:15:00,
2013-04-25 17:20:00,69.1,55.0,30.01,SW,215,4.0,13.0,62,0.00,,,0.00,weatherlink.com 1.10,2013-04-26 00:20:00,
2013-04-25 17:30:00,69.1,54.7,30.01,SW,225,5.0,13.0,60,0.00,,---,0.00,VWS V14.01,2013-04-26 00:30:00,
2013-04-25 17:35:00,68.9,54.0,30.01,West,273,8.0,11.0,59,0.00,,,0.00,weatherlink.com 1.10,2013-04-26 00:35:00,
2013-04-25 17:45:00,68.6,54.2,30.01,WSW,248,5.0,13.0,60,0.00,,---,0.00,VWS V14.01,2013-04-26 00:45:00,
2013-04-25 17:50:00,68.7,55.0,30.01,SSW,200,3.0,10.0,61,0.00,,,0.00,weatherlink.com 1.10,2013-04-26 00:50:00,
2013-04-25 18:00:00,68.4,54.9,30.01,SSW,202,4.0,11.0,62,0.00,,---,0.00,VWS V14.01,2013-04-26 01:00:00,
2013-04-25 18:05:00,68.4,55.0,30.01,SW,229,3.0,10.0,62,0.00,,,0.00,weatherlink.com 1.10,2013-04-26 01:05:00,
2013-04-25 18:15:00,67.9,54.4,30.01,WSW,248,5.0,14.0,62,0.00,,---,0.00,VWS V14.01,2013-04-26 01:15:00,
2013-04-25 18:20:00,67.9,55.0,30.01,SSW,207,3.0,12.0,63,0.00,,,0.00,weatherlink.com 1.10,2013-04-26 01:20:00,
2013-04-25 18:30:00,67.5,54.5,30.01,WSW,248,5.0,13.0,63,0.00,,---,0.00,VWS V14.01,2013-04-26 01:30:00,
2013-04-25 18:35:00,67.4,54.0,30.01,SW,215,3.0,13.0,63,0.00,,,0.00,weatherlink.com 1.10,2013-04-26 01:35:00,
2013-04-25 18:45:00,67.0,54.4,30.01,WSW,248,4.0,11.0,64,0.00,,---,0.00,VWS V14.01,2013-04-26 01:45:00,
2013-04-25 18:50:00,66.6,54.0,30.02,WSW,248,6.0,11.0,65,0.00,,,0.00,weatherlink.com 1.10,2013-04-26 01:50:00,
2013-04-25 19:00:00,65.9,54.7,30.02,WSW,248,4.0,10.0,67,0.00,,---,0.00,VWS V14.01,2013-04-26 02:00:00,
2013-04-25 19:05:00,65.4,55.0,30.02,SW,215,0.0,8.0,68,0.00,,,0.00,weatherlink.com 1.10,2013-04-26 02:05:00,
2013-04-25 19:15:00,64.9,54.5,30.02,WSW,248,3.0,9.0,69,0.00,,---,0.00,VWS V14.01,2013-04-26 02:15:00,
2013-04-25 19:20:00,64.6,55.0,30.02,WSW,248,2.0,7.0,70,0.00,,,0.00,weatherlink.com 1.10,2013-04-26 02:20:00,
2013-04-25 19:30:00,64.3,53.9,30.02,WSW,248,1.0,5.0,69,0.00,,---,0.00,VWS V14.01,2013-04-26 02:30:00,
2013-04-25 19:35:00,64.2,52.0,30.02,West,265,1.0,7.0,64,0.00,,,0.00,weatherlink.com 1.10,2013-04-26 02:35:00,
2013-04-25 19:45:00,64.3,52.3,30.02,West,270,2.0,7.0,65,0.00,,---,0.00,VWS V14.01,2013-04-26 02:45:00,
2013-04-25 19:50:00,64.2,52.0,30.03,NW,304,0.0,7.0,65,0.00,,,0.00,weatherlink.com 1.10,2013-04-26 02:50:00,
2013-04-25 20:00:00,64.0,52.0,30.03,WNW,292,1.0,4.0,65,0.00,,---,0.00,VWS V14.01,2013-04-26 03:00:00,
2013-04-25 20:05:00,63.8,52.0,30.03,WNW,294,0.0,4.0,66,0.00,,,0.00,weatherlink.com 1.10,2013-04-26 03:05:00,
2013-04-25 20:15:00,63.5,52.0,30.04,WNW,292,0.0,3.0,66,0.00,,---,0.00,VWS V14.01,2013-04-26 03:15:00,
2013-04-25 20:20:00,63.2,52.0,30.04,WNW,294,0.0,4.0,67,0.00,,,0.00,weatherlink.com 1.10,2013-04-26 03:20:00,
2013-04-25 20:30:00,63.0,51.9,30.05,NW,315,1.0,4.0,67,0.00,,---,0.00,VWS V14.01,2013-04-26 03:30:00,
2013-04-25 20:35:00,62.9,52.0,30.05,NW,313,1.0,4.0,67,0.00,,,0.00,weatherlink.com 1.10,2013-04-26 03:35:00,
2013-04-25 20:45:00,62.6,52.3,30.05,NW,315,1.0,5.0,69,0.00,,---,0.00,VWS V14.01,2013-04-26 03:45:00,
2013-04-25 20:50:00,62.4,52.0,30.06,WNW,299,3.0,5.0,69,0.00,,,0.00,weatherlink.com 1.10,2013-04-26 03:50:00,
2013-04-25 21:00:00,62.2,52.3,30.06,NNW,338,1.0,5.0,70,0.00,,---,0.00,VWS V14.01,2013-04-26 04:00:00,
2013-04-25 21:05:00,62.0,52.0,30.06,NNW,333,0.0,2.0,71,0.00,,,0.00,weatherlink.com 1.10,2013-04-26 04:05:00,
2013-04-25 21:15:00,61.8,53.1,30.07,NNW,338,0.0,2.0,73,0.00,,---,0.00,VWS V14.01,2013-04-26 04:15:00,
2013-04-25 21:20:00,61.5,53.0,30.07,NNW,332,0.0,3.0,74,0.00,,,0.00,weatherlink.com 1.10,2013-04-26 04:20:00,
2013-04-25 21:30:00,61.3,53.0,30.07,NNW,338,0.0,3.0,74,0.00,,---,0.00,VWS V14.01,2013-04-26 04:30:00,
2013-04-25 21:35:00,61.2,53.0,30.08,NNW,329,1.0,3.0,75,0.00,,,0.00,weatherlink.com 1.10,2013-04-26 04:35:00,
2013-04-25 21:45:00,61.0,53.4,30.08,NNW,338,0.0,3.0,76,0.00,,---,0.00,VWS V14.01,2013-04-26 04:45:00,
2013-04-25 21:50:00,60.8,53.0,30.08,NNW,329,0.0,2.0,76,0.00,,,0.00,weatherlink.com 1.10,2013-04-26 04:50:00,
2013-04-25 22:00:00,60.4,53.2,30.08,NNW,338,0.0,2.0,77,0.00,,---,0.00,VWS V14.01,2013-04-26 05:00:00,
2013-04-25 22:05:00,60.1,53.0,30.08,NNW,329,0.0,1.0,77,0.00,,,0.00,weatherlink.com 1.10,2013-04-26 05:05:00,
2013-04-25 22:15:00,59.8,53.3,30.08,NNW,338,0.0,2.0,79,0.00,,---,0.00,VWS V14.01,2013-04-26 05:15:00,
2013-04-25 22:20:00,59.8,53.0,30.08,NNW,329,0.0,2.0,79,0.00,,,0.00,weatherlink.com 1.10,2013-04-26 05:20:00,
2013-04-25 22:30:00,59.8,53.3,30.08,NNW,338,0.0,2.0,79,0.00,,---,0.00,VWS V14.01,2013-04-26 05:30:00,
2013-04-25 22:35:00,59.7,53.0,30.08,NNW,329,0.0,2.0,79,0.00,,,0.00,weatherlink.com 1.10,2013-04-26 05:35:00,
2013-04-25 22:45:00,59.6,53.4,30.09,NNW,338,0.0,3.0,80,0.00,,---,0.00,VWS V14.01,2013-04-26 05:45:00,
2013-04-25 22:50:00,59.7,53.0,30.09,NW,325,0.0,4.0,79,0.00,,,0.00,weatherlink.com 1.10,2013-04-26 05:50:00,
2013-04-25 23:00:00,59.7,53.2,30.09,NNW,338,1.0,4.0,79,0.00,,---,0.00,VWS V14.01,2013-04-26 06:00:00,
2013-04-25 23:05:00,59.6,53.0,30.09,NW,325,1.0,2.0,79,0.00,,,0.00,weatherlink.com 1.10,2013-04-26 06:05:00,
2013-04-25 23:15:00,59.4,52.9,30.09,NW,315,0.0,2.0,79,0.00,,---,0.00,VWS V14.01,2013-04-26 06:15:00,
2013-04-25 23:20:00,59.2,53.0,30.09,NW,325,0.0,1.0,79,0.00,,,0.00,weatherlink.com 1.10,2013-04-26 06:20:00,
2013-04-25 23:30:00,58.7,52.2,30.09,NW,315,0.0,1.0,79,0.00,,---,0.00,VWS V14.01,2013-04-26 06:30:00,
2013-04-25 23:35:00,58.3,52.0,30.09,NW,325,0.0,1.0,80,0.00,,,0.00,weatherlink.com 1.10,2013-04-26 06:35:00,
2013-04-25 23:45:00,57.7,51.9,30.09,NW,315,0.0,0.0,81,0.00,,---,0.00,VWS V14.01,2013-04-26 06:45:00,
2013-04-25 23:50:00,57.3,52.0,30.09,NW,325,0.0,0.0,82,0.00,,,0.00,weatherlink.com 1.10,2013-04-26 06:50:00,